TimeCST,TemperatureF,Dew PointF,Humidity,Sea Level PressureIn,VisibilityMPH,Wind Direction,Wind SpeedMPH,Gust SpeedMPH,PrecipitationIn,Events,Conditions,WindDirDegrees,DateUTC
12:15 AM,17.6,1.4,49,30.41,10.0,NE,10.4,-,N/A,,Clear,40,2014-02-11 06:15:00
12:35 AM,17.6,1.4,49,30.40,10.0,NNE,15.0,-,N/A,,Clear,30,2014-02-11 06:35:00
12:55 AM,17.6,-0.4,45,30.41,10.0,NE,12.7,-,N/A,,Clear,40,2014-02-11 06:55:00
1:15 AM,15.8,-0.4,49,30.41,10.0,NNE,10.4,-,N/A,,Clear,30,2014-02-11 07:15:00
1:35 AM,15.8,-0.4,49,30.42,10.0,North,13.8,-,N/A,,Clear,10,2014-02-11 07:35:00
1:55 AM,15.8,-0.4,49,30.42,10.0,NNE,12.7,-,N/A,,Clear,20,2014-02-11 07:55:00
2:15 AM,15.8,-0.4,49,30.42,10.0,NNE,12.7,-,N/A,,Clear,30,2014-02-11 08:15:00
2:35 AM,14.0,-0.4,53,30.42,10.0,North,12.7,-,N/A,,Clear,10,2014-02-11 08:35:00
2:55 AM,14.0,-0.4,53,30.42,10.0,NNE,12.7,-,N/A,,Clear,20,2014-02-11 08:55:00
3:15 AM,14.0,-2.2,49,30.41,10.0,NNE,15.0,-,N/A,,Clear,20,2014-02-11 09:15:00
3:35 AM,14.0,-0.4,53,30.41,10.0,NNE,15.0,-,N/A,,Clear,30,2014-02-11 09:35:00
3:55 AM,14.0,-0.4,53,30.39,10.0,NNE,17.3,-,N/A,,Clear,30,2014-02-11 09:55:00
4:15 AM,14.0,-2.2,49,30.40,10.0,NNE,13.8,21.9,N/A,,Clear,30,2014-02-11 10:15:00
4:35 AM,14.0,-2.2,49,30.41,10.0,NNE,13.8,-,N/A,,Partly Cloudy,30,2014-02-11 10:35:00
4:55 AM,14.0,-2.2,49,30.42,10.0,NNE,12.7,16.1,N/A,,Mostly Cloudy,20,2014-02-11 10:55:00
5:15 AM,12.2,-2.2,53,30.41,10.0,NNE,15.0,20.7,N/A,,Partly Cloudy,20,2014-02-11 11:15:00
5:35 AM,12.2,-2.2,53,30.42,10.0,NNE,15.0,19.6,N/A,,Clear,20,2014-02-11 11:35:00
5:55 AM,12.2,-2.2,53,30.43,10.0,NNE,12.7,19.6,N/A,,Clear,30,2014-02-11 11:55:00
6:15 AM,12.2,-2.2,53,30.43,10.0,NNE,17.3,-,N/A,,Clear,20,2014-02-11 12:15:00
6:35 AM,12.2,-2.2,53,30.44,10.0,NNE,12.7,-,N/A,,Clear,20,2014-02-11 12:35:00
6:55 AM,12.2,-2.2,53,30.45,10.0,NNE,15.0,-,N/A,,Clear,30,2014-02-11 12:55:00
7:15 AM,12.2,-2.2,53,30.45,10.0,NNE,17.3,20.7,N/A,,Clear,30,2014-02-11 13:15:00
7:35 AM,12.2,-2.2,53,30.45,10.0,NE,15.0,-,N/A,,Clear,40,2014-02-11 13:35:00
7:55 AM,12.2,-2.2,53,30.44,10.0,NNE,13.8,19.6,N/A,,Partly Cloudy,30,2014-02-11 13:55:00
8:15 AM,12.2,-2.2,53,30.47,10.0,North,12.7,-,N/A,,Partly Cloudy,10,2014-02-11 14:15:00
8:35 AM,14.0,-2.2,49,30.48,10.0,North,11.5,16.1,N/A,,Clear,360,2014-02-11 14:35:00
8:55 AM,15.8,-0.4,49,30.46,10.0,NE,12.7,-,N/A,,Clear,40,2014-02-11 14:55:00
9:15 AM,15.8,-0.4,49,30.44,10.0,NE,15.0,21.9,N/A,,Clear,40,2014-02-11 15:15:00
9:35 AM,15.8,1.4,53,30.45,10.0,NE,11.5,16.1,N/A,,Clear,40,2014-02-11 15:35:00
9:55 AM,17.6,-0.4,45,30.48,10.0,North,9.2,-,N/A,,Clear,10,2014-02-11 15:55:00
10:15 AM,19.4,1.4,46,30.47,10.0,NNE,11.5,-,N/A,,Clear,20,2014-02-11 16:15:00
10:35 AM,19.4,3.2,49,30.45,10.0,NE,12.7,-,N/A,,Clear,40,2014-02-11 16:35:00
10:55 AM,19.4,3.2,49,30.46,10.0,NE,10.4,-,N/A,,Clear,40,2014-02-11 16:55:00
11:15 AM,21.2,5.0,50,30.46,10.0,NNE,12.7,17.3,N/A,,Clear,20,2014-02-11 17:15:00
11:35 AM,21.2,5.0,50,30.45,10.0,NNE,13.8,-,N/A,,Clear,30,2014-02-11 17:35:00
11:55 AM,23.0,5.0,46,30.44,10.0,NNE,12.7,-,N/A,,Scattered Clouds,30,2014-02-11 17:55:00
12:15 PM,23.0,5.0,46,30.43,10.0,NE,11.5,-,N/A,,Overcast,40,2014-02-11 18:15:00
12:35 PM,24.8,6.8,46,30.41,10.0,NE,11.5,-,N/A,,Scattered Clouds,50,2014-02-11 18:35:00
12:55 PM,24.8,6.8,46,30.40,10.0,NNE,9.2,-,N/A,,Mostly Cloudy,30,2014-02-11 18:55:00
1:15 PM,24.8,6.8,46,30.39,10.0,NNE,10.4,-,N/A,,Scattered Clouds,20,2014-02-11 19:15:00
1:35 PM,24.8,6.8,46,30.38,10.0,NNE,12.7,16.1,N/A,,Clear,20,2014-02-11 19:35:00
1:55 PM,26.6,6.8,43,30.37,10.0,NNE,15.0,-,N/A,,Clear,20,2014-02-11 19:55:00
2:15 PM,26.6,6.8,43,30.37,10.0,NE,13.8,-,N/A,,Clear,40,2014-02-11 20:15:00
2:35 PM,26.6,6.8,43,30.36,10.0,North,13.8,-,N/A,,Clear,360,2014-02-11 20:35:00
2:55 PM,26.6,6.8,43,30.36,10.0,NE,12.7,-,N/A,,Clear,40,2014-02-11 20:55:00
3:15 PM,26.6,6.8,43,30.36,10.0,NNE,12.7,-,N/A,,Clear,30,2014-02-11 21:15:00
3:35 PM,26.6,6.8,43,30.35,10.0,NE,11.5,-,N/A,,Clear,40,2014-02-11 21:35:00
3:55 PM,26.6,6.8,43,30.35,10.0,NNE,16.1,-,N/A,,Clear,20,2014-02-11 21:55:00
4:15 PM,26.6,6.8,43,30.33,10.0,NE,12.7,-,N/A,,Clear,40,2014-02-11 22:15:00
4:35 PM,26.6,6.8,43,30.33,10.0,NNE,15.0,-,N/A,,Clear,20,2014-02-11 22:35:00
4:55 PM,26.6,6.8,43,30.31,10.0,NNE,13.8,-,N/A,,Clear,30,2014-02-11 22:55:00
5:15 PM,26.6,6.8,43,30.32,10.0,NNE,11.5,18.4,N/A,,Clear,30,2014-02-11 23:15:00
5:35 PM,26.6,6.8,43,30.31,10.0,NNE,10.4,-,N/A,,Clear,30,2014-02-11 23:35:00
5:55 PM,24.8,6.8,46,30.32,10.0,NNE,11.5,18.4,N/A,,Clear,30,2014-02-11 23:55:00
6:15 PM,24.8,6.8,46,30.33,10.0,NNE,13.8,-,N/A,,Clear,30,2014-02-12 00:15:00
6:35 PM,24.8,6.8,46,30.32,10.0,NE,11.5,-,N/A,,Clear,40,2014-02-12 00:35:00
6:55 PM,24.8,6.8,46,30.32,10.0,NNE,11.5,-,N/A,,Clear,30,2014-02-12 00:55:00
7:15 PM,24.8,6.8,46,30.32,10.0,NE,9.2,-,N/A,,Clear,40,2014-02-12 01:15:00
7:35 PM,24.8,6.8,46,30.32,10.0,NE,8.1,-,N/A,,Clear,40,2014-02-12 01:35:00
7:55 PM,24.8,6.8,46,30.33,10.0,NE,10.4,-,N/A,,Clear,40,2014-02-12 01:55:00
8:15 PM,24.8,6.8,46,30.33,10.0,NE,10.4,-,N/A,,Clear,40,2014-02-12 02:15:00
8:35 PM,24.8,6.8,46,30.33,10.0,NE,9.2,16.1,N/A,,Clear,40,2014-02-12 02:35:00
8:55 PM,24.8,6.8,46,30.33,10.0,NE,10.4,-,N/A,,Clear,50,2014-02-12 02:55:00
9:15 PM,24.8,6.8,46,30.32,10.0,NE,9.2,-,N/A,,Clear,40,2014-02-12 03:15:00
9:35 PM,24.8,6.8,46,30.33,10.0,NE,10.4,-,N/A,,Clear,50,2014-02-12 03:35:00
9:55 PM,23.0,8.6,54,30.33,10.0,NE,9.2,-,N/A,,Clear,50,2014-02-12 03:55:00
10:15 PM,23.0,8.6,54,30.32,10.0,NE,11.5,-,N/A,,Clear,50,2014-02-12 04:15:00
10:35 PM,23.0,8.6,54,30.31,10.0,NE,13.8,-,N/A,,Clear,40,2014-02-12 04:35:00
10:55 PM,23.0,8.6,54,30.30,10.0,NE,11.5,-,N/A,,Clear,50,2014-02-12 04:55:00
11:15 PM,21.2,8.6,58,30.30,10.0,NE,12.7,-,N/A,,Clear,50,2014-02-12 05:15:00
11:35 PM,21.2,8.6,58,30.29,10.0,NE,10.4,-,N/A,,Clear,40,2014-02-12 05:35:00
11:55 PM,21.2,8.6,58,30.29,10.0,NE,9.2,-,N/A,,Clear,40,2014-02-12 05:55:00